Preview of NWS' New Version of Forecast
This preview is not operational and should not be used for support decisions.

Regional Weather Roundup (RWR)

Issued by National Weather Service (NWS)

                            
000
ASUS46 KPQR 182110
RWROR 

OREGON REGIONAL WEATHER ROUNDUP
NATIONAL WEATHER SERVICE PORTLAND OR
200 PM PDT SAT MAY 18 2019

NOTE: "FAIR" INDICATES FEW OR NO CLOUDS BELOW 12,000 FEET WITH
NO SIGNIFICANT WEATHER AND/OR OBSTRUCTIONS TO VISIBILITY.

ORZ001>013-182200-
NORTHWEST OREGON

  
CITY           SKY/WX    TMP DP  RH WIND       PRES   REMARKS
ASTORIA        PTSUNNY   64  51  62 NE10      29.69F                  
TILLAMOOK      PTSUNNY   68  46  45 W6        29.68S                  
NEWPORT        CLOUDY    57  50  77 NW7       29.69F                  
PORTLAND       PTSUNNY   74  44  34 E12       29.67F                  
VANCOUVER WA   CLOUDY    71  43  36 E8G17     29.67F                  
SCAPPOOSE      CLOUDY    72  48  42 NE5       29.68F                  
HILLSBORO      PTSUNNY   69  48  47 NE9       29.68F                  
AURORA         PTSUNNY   71  47  42 N10       29.67F                  
MCMINNVILLE    PTSUNNY   69  48  47 NE12      29.66F                  
SALEM          CLOUDY    70  46  42 N9        29.63F                  
CORVALLIS      CLOUDY    68  51  54 N7        29.64F                  
EUGENE         CLOUDY    67  54  63 N9        29.63F                  
$$

ORZ021-028-182200-
SOUTHWEST OREGON

  
CITY           SKY/WX    TMP DP  RH WIND       PRES   REMARKS
NORTH BEND     LGT RAIN  54  50  86 E6        29.69S                  
BROOKINGS      LGT RAIN  56  49  77 SE9G20    29.68F                  
ROSEBURG       CLOUDY    66  39  37 SE17G28   29.63F                  
GRANTS PASS    CLOUDY    59  48  67 CALM      29.68S                  
MEDFORD        CLOUDY    63  38  39 SE16      29.65F                  
$$

ORZ014>016-041-182200-
COLUMBIA GORGE

  
CITY           SKY/WX    TMP DP  RH WIND       PRES   REMARKS
TROUTDALE      CLOUDY    69  48  47 E12       29.67F                  
THE DALLES     PTSUNNY   73  42  32 NE13      29.72F                  
$$

ORZ029>031-041-044-049-050-061>064-502-503-505>511-182200-
EASTERN OREGON

  
CITY           SKY/WX    TMP DP  RH WIND       PRES   REMARKS
MADRAS         CLOUDY    63  37  39 N13       29.72F                  
REDMOND        CLOUDY    67  29  24 S17G23    29.71F                  
BEND           CLOUDY    63  28  27 S18       29.72S                  
PRINEVILLE     CLOUDY    64  32  29 SE16G26   29.71F                  
KLAMATH FALLS  CLOUDY    51  35  54 S18G24    29.77F                  
LAKEVIEW       CLOUDY    54  35  48 SE15      29.80F                  
HERMISTON      MOSUNNY   73  43  33 E10       29.76F                  
PENDLETON      MOSUNNY   68  43  40 NE7       29.76F                  
JOHN DAY       CLOUDY    63  35  35 S12       29.80F                  
MEACHAM        MOSUNNY   62  39  42 VRB3      29.80F                  
LA GRANDE      CLOUDY    62  39  42 SE12G24   29.81F                  
BAKER CITY     PTSUNNY   64  38  38 SE7       29.83F                  
BURNS          LGT RAIN  55  41  59 SE9G28    29.82F                  
ROME             N/A     62  30  29 SW8       29.82F                  
ONTARIO        SUNNY     67  39  35 CALM      29.85F                  
$$